Notices

What's New in latest Release from April 7th, 2021:

- Updated Glossary, including Speed of Maximum Gust, and Total Hourly Precipitation

- Updated national and regional climate services offices contacts and prices information

- Addition of station inventory lists for 1981-2010, 1971-2000, and 1961-1990 Normals.

If you haven't already, please take our survey and provide feedback about our website: https://eccc.sondage-survey.ca/f/LanguageSelection.aspx?s=442ca660-fcf1-47c0-95a9-59707d6fd709

Hourly Data Report for October 16, 2019

SAINT JOHN A
NEW BRUNSWICK
Current Station Operator: NAVCAN

45°18'58.000" N
65°53'24.000" W
108.80 m
8104901
71609
YSJ

Download Data

Hourly Data (October 2019)
Hourly Data Report for October 16, 2019
TIME
LST
Temp Definition
°C
Dew Point Definition
°C
Rel Hum Definition
%
Precip. Amount Definition
mm

Wind Dir Definition
10's deg

Wind Spd Definition
km/h
Visibility Definition
km
Stn Press Definition
kPa
Hmdx Definition


Wind Chill Definition


Weather Definition


00:00 0.2 -0.4 95   1 3 24.1 100.51     LegendNANA
01:00 -0.4 -0.9 96   36 1 24.1 100.56   -1 LegendNANA
02:00 -0.9 -1.3 97   36 1 24.1 100.57   -1 Clear
03:00 -1.2 -1.5 97   36 2 24.1 100.56   -2 LegendNANA
04:00 -1.3 -1.6 98   0 1 24.1 100.56   -2 LegendNANA
05:00 -1.0 -1.3 98   2 5 24.1 100.54   -3 Clear
06:00 -1.3 -1.5 98   0 1 24.1 100.58   -2 LegendNANA
07:00 -1.3 -1.7 98   3 5 24.1 100.64   -3 LegendNANA
08:00 2.6 2.1 97   5 3 24.1 100.67     Mainly Clear
09:00 7.8 4.0 77   9 3 24.1 100.66     LegendNANA
10:00 11.9 3.9 58   27 8 24.1 100.65     LegendNANA
11:00 13.0 2.0 47   31 6 24.1 100.62     Mainly Clear
12:00 13.5 -0.2 39   25 5 24.1 100.58     LegendNANA
13:00 14.0 1.8 43   18 10 24.1 100.49     LegendNANA
14:00 13.9 1.6 43   20 17 24.1 100.44     Mainly Clear
15:00 13.5 1.6 44   16 14 24.1 100.38     LegendNANA
16:00 12.7 0.9 44   19 16 24.1 100.40     LegendNANA
17:00 11.4 1.4 50   14 4 24.1 100.37     Mainly Clear
18:00 6.2 3.8 85   8 5 24.1 100.31     LegendNANA
19:00 5.8 3.6 86   36 3 24.1 100.27     LegendNANA
20:00 7.8 3.8 76   11 11 24.1 100.17     Mostly Cloudy
21:00 7.9 4.5 79   12 13 24.1 100.12     LegendNANA
22:00 7.3 4.8 84   11 7 24.1 100.06     LegendNANA
23:00 8.2 4.4 77   12 12 24.1 99.96     Cloudy

Notes on Data Quality.

Legend

  • E = Estimated
  • M = Missing
  • NA = Not Available*
  • [empty] = Indicates an unobserved value
Date modified: